OBJECT B, 44880

Orbit data source: Space-Track

You're viewing an Uncataloged Satellite

Recently launched and/or uncataloged satellites may have evolving metadata. Metadata may include but not limited to: Owner, Maufacturer, Bus, Motor, and Mission.

OBJECT B, 44880 is a satellite in SSO that was launched on Fri, 20 Dec 2019 UTC via a CHANG ZHENG 4B launch vehicle from the Taiyaun Space Center, China (TSC). Unknown objects in Earth's orbit typically refer to objects detected orbiting the Earth but have not yet been identified or cataloged. These objects could be anything from previously untracked satellites, spent rocket stages, debris from satellite collisions, or even natural meteoroids temporarily captured by Earth's gravity.

Loading next visibility...
Identifier
44880, 2019-093B
Orbit
SSO
Country
Flag of TBDTBD
Related business
None
Manufacturer
Unknown
Mission
Operational Civil Imaging
Bus & Motor
Unknown
Mass
Unknown
Launch date (UTC)
2019-12-20 (6 years ago)
Launch vehicle
CHANG ZHENG 4B
Launch site
Taiyaun Space Center, China (TSC)
Object type
Unknown
Shape & HBR
Box + 2 Pan, Unknown HBR
Radar Cross Section
0.195 m², Medium (>0.1 m² and < 1m²)

Expand to show TLE details & history
Last TLE update: 5 days ago

TLE from 5 days ago
0 OBJECT B
1 44880U 19093B   26155.25248655  .00004840  00000-0  43822-3 0  9990
2 44880  97.7825 239.6343 0013099  96.5224 263.7489 14.95794749350123
Epoch: 2026-06-04T06:03Z
TLE epoch observation values (Epoch: 2026-06-04T06:03:34.837Z)
Latitude
-0.00001°
Longitude
-103.96027°
Altitude
583.958 km
Speed
7.568 km/s
True Right ascension
15h 58m 32s
True Declination
0° 00' 00"
Sunlit
Object was in full shadow at epoch
Visualization orbit readout
Latitude
Unknown
Longitude
Unknown
Altitude
Unknown
Speed
Unknown
Apparent Right ascension
Unknown
Apparent Declination
Unknown
Sunlit
N/A
Visualization observer readout
Local Sidereal Time
00:37:44
Azimuth
Unknown
Elevation
Unknown
Doppler factor
Unknown
Orbital elements
Apogee altitude
586.032 km
Perigee altitude
567.811 km
Semi-major axis
6,955.059 km
Eccentricity
0.00131
Inclination
97.7825°
RAAN
239.6343°
Arg. of periapsis
96.5224°
True anomaly
263.59972°
Mean anomaly
263.7489°
Eccentric anomaly
263.67431°
Mean motion
3.7419 °/min
Orbital period
96.21 mins
BSTAR
0.00043822
Loading maneuver chart data...
Computing Atmospheric mass density...
Loading historical data...
Loading historical data...
Loading historical data...
Loading historical data...
Loading historical data...
Loading historical data...
Loading historical data...

Documentation

Showing up to 5 results
|